N9XP-9 Weather Reports


time (UTC)temp
C
wind
direction
speed
KPH
gust
KPH
rain 1hr
cm
rain 24hr
cm
rain mn
cm
humidity
%
barometer
mb
20260831021554 22 137 0.0 0.0 0.03 0.66 0.66 95 1015.1
20260831020049 22 139 0.0 0.0 0.03 0.66 0.66 94 1015.1
20260831014548 22 140 0.0 1.6 0.03 0.66 0.66 94 1015.0
20260831013057 22 139 1.6 4.8 0.00 0.64 0.64 94 1014.9
20260831011550 22 131 0.0 1.6 0.00 0.64 0.64 94 1014.8
20260831010046 22 158 0.0 1.6 0.00 0.64 0.64 94 1014.7
20260831004646 22 38 0.0 0.0 0.00 0.64 0.64 94 1014.4
20260831003047 22 29 0.0 1.6 0.00 0.64 0.64 93 1014.2
20260831001545 22 105 0.0 3.2 0.00 0.64 0.64 93 1014.3
20260831000045 22 129 0.0 6.4 0.00 0.64 0.64 93 1014.7
20260830234548 22 139 0.0 4.8 0.00 0.64 0.64 93 1014.9
20260830233043 22 117 0.0 4.8 0.00 0.64 0.64 93 1014.7
20260830231556 22 112 0.0 1.6 0.03 0.64 0.64 92 1014.9
20260830230048 22 130 0.0 1.6 0.03 0.64 0.64 92 1014.8
20260830224550 22 136 0.0 3.2 0.05 0.64 0.64 92 1015.0
20260830223040 22 134 0.0 3.2 0.03 0.61 0.61 91 1015.3
20260830221541 23 167 0.0 1.6 0.03 0.61 0.61 91 1015.3
20260830220039 23 129 0.0 1.6 0.03 0.61 0.61 91 1015.2
20260830214539 23 133 0.0 1.6 0.00 0.58 0.58 90 1014.9
20260830213039 23 162 0.0 1.6 0.00 0.58 0.58 90 1015.2
20260830211538 23 153 0.0 3.2 0.00 0.58 0.58 90 1015.3
20260830210037 23 176 0.0 3.2 0.03 0.58 0.58 89 1015.3
20260830204538 23 162 0.0 4.8 0.08 0.58 0.58 90 1015.3
20260830203038 22 172 0.0 4.8 0.10 0.58 0.58 90 1015.3
20260830201541 22 170 1.6 8.0 0.10 0.58 0.58 89 1015.2
20260830200034 22 152 3.2 11.3 0.10 0.56 0.56 88 1015.2
20260830194534 23 165 3.2 9.7 0.10 0.51 0.51 85 1015.4
20260830193041 23 157 0.0 1.6 0.08 0.48 0.48 87 1015.4
20260830191533 24 136 0.0 1.6 0.08 0.48 0.48 86 1015.2
20260830190032 26 15 0.0 3.2 0.03 0.43 0.43 74 1015.3
20260830184531 27 17 0.0 11.3 0.00 0.41 0.41 70 1014.9
20260830183029 26 131 4.8 17.7 0.00 0.41 0.41 69 1014.4
20260830181529 27 173 6.4 16.1 0.00 0.41 0.41 67 1014.1
20260830180044 27 141 9.7 20.9 0.00 0.41 0.41 67 1013.9
20260830174523 26 185 9.7 22.5 0.00 0.41 0.41 68 1014.1
20260830173021 25 123 3.2 16.1 0.00 0.41 0.41 71 1014.4
20260830171519 26 148 4.8 16.1 0.00 0.41 0.41 69 1014.7
20260830170016 25 142 8.0 20.9 0.00 0.41 0.41 71 1014.8
20260830164514 25 100 8.0 19.3 0.00 0.41 0.41 73 1014.6
20260830163020 25 129 3.2 16.1 0.00 0.41 0.41 75 1014.6
20260830161512 24 157 3.2 16.1 0.00 0.41 0.41 76 1014.6
20260830160012 24 144 3.2 19.3 0.00 0.41 0.41 77 1014.5
20260830154509 24 150 4.8 12.9 0.00 0.41 0.41 76 1014.7
20260830153005 23 165 3.2 9.7 0.00 0.41 0.41 81 1014.6
20260830151502 23 175 3.2 12.9 0.00 0.41 0.41 83 1014.6
20260830150058 22 139 4.8 12.9 0.00 0.41 0.41 85 1014.2
20260830144658 21 131 6.4 17.7 0.00 0.41 0.41 88 1014.5
20260830143103 20 165 1.6 14.5 0.00 0.41 0.41 91 1014.6
20260830141601 20 183 4.8 14.5 0.00 0.41 0.41 91 1014.9
20260830140055 20 145 6.4 12.9 0.00 0.41 0.41 93 1014.8
20260830134555 19 127 1.6 9.7 0.18 0.41 0.41 94 1015.0
20260830133105 19 177 1.6 11.3 0.20 0.41 0.41 94 1015.3
20260830131555 19 156 0.0 6.4 0.25 0.41 0.41 95 1015.6
20260830130053 18 171 1.6 6.4 0.30 0.41 0.41 94 1015.8
20260830124613 18 136 0.0 4.8 0.18 0.23 0.23 94 1016.1
20260830123055 18 155 0.0 3.2 0.18 0.20 0.20 93 1016.4
20260830121550 19 143 0.0 3.2 0.15 0.15 0.15 92 1016.1
20260830120047 19 131 0.0 4.8 0.10 0.10 0.10 90 1016.0
20260830114556 20 163 0.0 6.4 0.05 0.05 0.05 88 1015.7
20260830113041 20 155 1.6 6.4 0.03 0.03 0.03 84 1015.5
20260830111540 20 184 1.6 8.0 0.00 0.00 0.00 82 1015.3
20260830110038 21 164 0.0 6.4 0.00 0.00 0.00 82 1015.1
20260830104542 21 159 1.6 9.7 0.00 0.00 0.00 80 1014.7
20260830103035 21 141 1.6 9.7 0.00 0.00 0.00 78 1014.5
20260830101533 21 126 0.0 9.7 0.00 0.00 0.00 77 1014.4
20260830100033 21 141 3.2 9.7 0.00 0.00 0.00 77 1014.4
20260830094535 21 120 1.6 9.7 0.00 0.00 0.00 76 1014.3
20260830093033 21 125 4.8 14.5 0.00 0.00 0.00 75 1014.3
20260830091529 21 139 1.6 9.7 0.00 0.00 0.00 75 1014.4
20260830090033 21 172 3.2 11.3 0.00 0.00 0.00 74 1014.5
20260830084525 21 174 3.2 9.7 0.00 0.00 0.00 73 1014.7
20260830083025 21 154 3.2 11.3 0.00 0.00 0.00 73 1014.6
20260830081530 21 167 3.2 9.7 0.00 0.00 0.00 72 1014.9
20260830080021 21 204 0.0 12.9 0.00 0.00 0.00 72 1015.0
20260830074520 21 151 1.6 9.7 0.00 0.00 0.00 72 1015.1
20260830073023 21 148 1.6 14.5 0.00 0.00 0.00 72 1015.2
20260830071518 21 134 4.8 12.9 0.00 0.00 0.00 72 1015.1
20260830070017 21 150 4.8 14.5 0.00 0.00 0.00 72 1015.2
20260830064614 21 134 1.6 9.7 0.00 0.00 0.00 72 1015.1
20260830063012 22 172 3.2 11.3 0.00 0.00 0.00 72 1015.5
20260830061519 22 141 1.6 8.0 0.00 0.00 0.00 71 1015.5
20260830060015 22 159 1.6 11.3 0.00 0.00 0.00 71 1015.7
20260830054511 22 126 3.2 9.7 0.00 0.00 0.00 70 1015.6
20260830053007 22 158 3.2 9.7 0.00 0.00 0.00 70 1015.8
20260830051505 22 158 3.2 11.3 0.00 0.00 0.00 70 1015.7
20260830050002 22 166 3.2 11.3 0.00 0.00 0.00 71 1015.5
20260830044602 22 114 1.6 11.3 0.00 0.00 0.00 72 1015.6
20260830043104 22 155 3.2 9.7 0.00 0.00 0.00 74 1015.8
20260830041604 22 138 0.0 6.4 0.00 0.00 0.00 77 1015.8
20260830040106 21 51 1.6 9.7 0.00 0.00 0.00 78 1016.0
20260830034600 21 153 1.6 6.4 0.00 0.00 0.00 79 1016.0
20260830033058 22 125 1.6 8.0 0.00 0.00 0.00 79 1016.1
20260830031610 22 89 1.6 11.3 0.00 0.00 0.00 79 1016.0
20260830030055 22 146 0.0 6.4 0.00 0.00 0.00 79 1016.0
20260830024553 22 131 1.6 11.3 0.00 0.00 0.00 79 1016.0
20260830023105 22 157 1.6 9.7 0.00 0.00 0.00 79 1016.1